Regional Weather Roundup
Issued by NWS

Home | Current Version | Previous Version | Graphics & Text | Print | Product List | Glossary On
Versions: 1 2 3 4 5 6 7 8 9 10 11 12 13 14 15 16 17 18 19 20 21 22 23 24 25 26 27 28 29 30 31 32 33 34 35 36 37 38 39 40 41 42 43 44 45 46 47 48 49 50
000
ASUS43 KFSD 231102
RWRSD

WEATHER ROUNDUP FOR SOUTH DAKOTA
NATIONAL WEATHER SERVICE SIOUX FALLS SD
600 AM CDT SAT JUL 23 2016

NOTE: "FAIR" INDICATES FEW OR NO CLOUDS BELOW 12,000 FEET WITH NO
SIGNIFICANT WEATHER AND/OR OBSTRUCTIONS TO VISIBILITY.


SDZ001>005-009-010-012>017-231200-
NORTHWEST AND NORTH CENTRAL SOUTH DAKOTA

CITY           SKY/WX    TMP DP  RH WIND       PRES   REMARKS
BUFFALO          N/A     66  60  81 S6        29.75F
FAITH            N/A     70  65  84 SE18G28   29.79S
MOBRIDGE       CLOUDY    73  66  78 SE13      29.77F
$$

SDZ012>016-024>037-041>051-057-063-072>074-231200-
SOUTHWEST AND SOUTH CENTRAL SOUTH DAKOTA

CITY           SKY/WX    TMP DP  RH WIND       PRES   REMARKS
RAPID CTY ARPT CLOUDY    67  56  67 SW7       29.83F
PIERRE         CLOUDY    76  72  87 E8        29.77F
CUSTER         CLEAR     63  53  70 W6        30.01F
ELLSWORTH AFB  CLOUDY    70  57  63 S7        29.81F
PHILIP         PTCLDY    72  72 100 E6        29.79F FOG
PINE RIDGE     PTCLDY    68  62  81 SW8       29.88F
WINNER         FAIR      76  69  79 SW9       29.80F
$$

SDZ004>011-016>023-039-040-231200-
NORTHEAST SOUTH DAKOTA

CITY           SKY/WX    TMP DP  RH WIND       PRES   REMARKS
ABERDEEN       CLOUDY    74  68  81 E9        29.79F
WATERTOWN      CLOUDY    76  74  93 E10       29.84F
BROOKINGS      CLOUDY    78  76  93 E8        29.85F
SISSETON         N/A     71  67  87 S3        29.83F
$$

SDZ017-020-022-023-036>040-048>070-231200-
SOUTHEAST SOUTH DAKOTA

CITY           SKY/WX    TMP DP  RH WIND       PRES   REMARKS
SIOUX FALLS    TSTM      77  74  90 VRB7G23   29.84F VSB 1/2
HURON          CLOUDY    78  75  90 S16G28    29.81R THUNDER
CHAMBERLAIN    CLOUDY    71  69  93 S5        29.77F
MITCHELL       TSTM      72  70  93 N8G24     29.85R
YANKTON        CLOUDY    77  70  78 S8        29.78F
$$

ABBREVIATIONS USED IN REMARKS
   TC - TEMPERATURE IN CELSIUS
  WCI - WIND CHILL INDEX
   HX - HEAT INDEX
  VSB - VISIBILITY




USA.gov is the U.S. government's official web portal to all federal, state and local government web resources and services.